星链-11209 (STARLINK-11209)

导读

STARLINK-11209是美国SpaceX公司星链星座的成员卫星,于2024年9月20日发射入轨,部署在近地轨道。星链项目旨在构建全球卫星互联网星座,通过大规模低轨卫星组网,为全球尤其是基础设施匮乏的偏远地区提供高速低延迟的宽带互联网接入服务,可支持视频通话、在线游戏等应用,推动互联网覆盖的全球化普及。

Basic Information
目录编号:
61200
目录名称:
STARLINK-11209
国际标识:
2024-171A
轨道中心:
EARTH
卫星名称:
星链-11209
卫星全名:
星链-11209 (STARLINK-11209)
卫星状态:
在轨 (已飞行715 天)
发射日期:
2024-09-20 UTC
国别 :
美国 (US)
星等 :
--
Orbit Information
数据来源 国际轨道数据
星历时间: 2026-09-04T17:26:43+0800
1天前
查看轨道信息
半长轴: 6737.863km
偏心率: 0.000087
轨道倾角: 53.159°
近地点辐角 79.795°
升交点赤经 15.514°
平近点角 280.317°
近地点: 359.139km
远地点: 360.313km
周期: 91.737分钟
每日圈数: 15.697104
Detailed Information
固有亮度:
5
最大亮度:
2.5
卫星平台:
Starlink V1.0
覆盖范围:
全球
运营商:
太空探索技术公司
运营商所在国:
美国
制造商(研发单位):
太空探索技术公司
制造商所在国:
美国
使用方式:
暂无
Satellite Introduction
Starlink 计划是 SpaceX 推出的全球卫星互联网项目,通过发射低轨道卫星,为全球尤其是偏远地区提供高速、低延迟的互联网服务。自 2019 年起,Starlink 已部署数千颗卫星,旨在缩小全球数字鸿沟,推动互联网普及。该项目还为军事、航空等行业提供通信支持,带来广泛经济效益。
2D Orbit Map
3D Orbit Map
Orbit Altitude Analysis Chart
Orbit Inclination Analysis Chart
Orbit Comprehensive Analysis Chart
View Comprehensive Chart
Conjunction Data List
Event ID Objects TCA Miss Dist (km) Collision Risk Probability Collision Risk Index (CRI) Action
CDM_260905-223404-475106-120022
2026-09-05T
22:34:04+0000
1.107 km
极远距离
9.2044E-6 低风险 0.54
CDM_260906-164306-120006-222121
2026-09-06T
16:43:56+0000
1.319 km
极远距离
6.467795E-6 低风险 0.51
CDM_260905-171304-475106-120022
2026-09-05T
17:13:11+0000
1.550 km
极远距离
3.024705E-6 低风险 0.45
CDM_260906-000504-475106-120021
2026-09-06T
00:05:44+0000
2.984 km
极远距离
7.556195E-7 极低风险 0.33